Regional Weather Roundup
Issued by NWS Sioux Falls, SD

Home | Current Version | Previous Version | Text Only | Print | Product List | Glossary On
Versions: 1 2 3 4 5 6 7 8 9 10 11 12 13 14 15 16 17 18 19 20 21 22 23 24 25 26 27 28 29 30 31 32 33 34 35 36 37 38 39 40 41 42 43 44 45 46 47 48 49 50
000
ASUS43 KFSD 041902
RWRFSD

WEATHER ROUNDUP FOR SE SOUTH DAKOTA/SW MINNESOTA/NW IOWA
NATIONAL WEATHER SERVICE SIOUX FALLS SD
200 PM CDT WED MAY 04 2016

NOTE: "FAIR" INDICATES FEW OR NO CLOUDS BELOW 12,000 FEET WITH NO
SIGNIFICANT WEATHER AND OR OBSTRUCTIONS TO VISIBILITY.


SDZ038>040-050-052>070-042000-
SOUTHEAST SOUTH DAKOTA

CITY           SKY/WX    TMP DP  RH WIND       PRES   REMARKS
BROOKINGS      SUNNY     64  34  32 NW13G21   30.04F
CHAMBERLAIN    NOT AVBL
HURON          SUNNY     66  36  32 NW13      30.07F
MADISON        FAIR      63  32  31 NW13G18   30.06F
MITCHELL       SUNNY     66  36  32 N12       30.09F
SIOUX FALLS    MOSUNNY   66  39  37 NW15G21   30.05F
WINNER         FAIR      68  33  27 NW5       30.12F
YANKTON        SUNNY     63  37  39 NW13G18   30.07F
$$

MNZ071-072-080-081-089-090-097-098-042000-
SOUTHWEST MINNESOTA

CITY           SKY/WX    TMP DP  RH WIND       PRES   REMARKS
FAIRMONT       SUNNY     63  34  34 N18G26    29.99F
JACKSON        SUNNY     63  32  31 N15G25    30.02F
LUVERNE        SUNNY     64  30  27 N13G23    30.04F
MARSHALL       SUNNY     65  34  31 N18G28    30.02F
MONTEVIDEO     SUNNY     66  30  26 N20G28    30.03F
PIPESTONE      SUNNY     64  25  22 N12G21    30.04S
REDWOOD FALLS  SUNNY     67  30  25 NW14G24   29.99F
TRACY          SUNNY     66  35  31 NW16G25   30.02F
WINDOM         SUNNY     64  30  27 NW20G28   30.01F
WORTHINGTON    SUNNY     62  36  37 N15G25    30.03F
$$

IAZ001>003-012>014-020>022-031-032-NEZ013-014-SDZ071-042000-
NORTHWEST IOWA

CITY           SKY/WX    TMP DP  RH WIND       PRES   REMARKS
DENISON        SUNNY     64  36  34 N12G22    30.01F
ESTHERVILLE    SUNNY     62  37  39 NW26G33   30.01F
SIOUX CITY     SUNNY     68  39  34 N14G20    30.05F
SPENCER        SUNNY     63  35  35 N17       30.03F
STORM LAKE       N/A     63  36  36 N18G26    30.03F
$$

ABBREVIATIONS USED IN REMARKS
   TC - TEMPERATURE IN CELSIUS
  WCI - WIND CHILL INDEX
   HX - HEAT INDEX
  VSB - VISIBILITY





USA.gov is the U.S. government's official web portal to all federal, state and local government web resources and services.